Weather History for Crestview, FL

Change the Weather History Date:

Wednesday, October 3, 2012

  Actual Average Record
Temperature  
Mean Temperature 68 °F -  
Max Temperature 81 °F 82 °F 91 °F (2004)
Min Temperature 57 °F 57 °F 43 °F (2011)
Cooling Degree Days 4    
Growing Degree Days 18 (Base 50)    
Moisture  
Dew Point 60 °F    
Average Humidity 76    
Maximum Humidity 93    
Minimum Humidity 52    
Precipitation  
Precipitation 0.00 in - - ()
Sea Level Pressure  
Sea Level Pressure 30.11 in    
Wind  
Wind Speed 1 mph (ENE)    
Max Wind Speed 6 mph    
Max Gust Speed -    
Visibility 9 miles    
Events      
Averages and records for this station are not official NWS values.
T = Trace of Precipitation, MM = Missing Value Source: NWS Daily Summary

Daily Weather History Graph

Daily Weather History Graph

Search for Another Location

Airport:

Trip Planner

Search our weather history database for the weather conditions in past years. The results will help you decide how hot, cold, wet, or windy it might be!

Date:

Astronomy

Oct. 03, 2012 Rise Set
Actual Time 6:41 AM CDT 6:28 PM CDT
Civil Twilight 6:17 AM CDT 6:52 PM CDT
Nautical Twilight 5:49 AM CDT 7:20 PM CDT
Astronomical Twilight 5:21 AM CDT 7:48 PM CDT
Moon 8:36 PM CDT (10/3) 9:48 AM CDT (10/3)
Length of Visible Light 12h 35m
Length of Day
11h 47m
Waning Gibbous, 88% of the Moon is Illuminated
Oct 3
Waning Gibbous
Oct 8
Last Quarter
Oct 15
New
Oct 21
First Quarter
Oct 29
Full

Hourly Weather History & Observations

Time (CDT) Temp. Heat Index Dew Point Humidity Pressure Visibility Wind Dir Wind Speed Gust Speed Precip Events Conditions
12:53 AM 61.0 °F - 57.9 °F 90% 30.03 in 8.0 mi Calm Calm - N/A   Partly Cloudy
1:53 AM 62.1 °F - 59.0 °F 90% 30.03 in 10.0 mi Calm Calm - N/A   Clear
2:53 AM 61.0 °F - 57.9 °F 90% 30.03 in 6.0 mi Calm Calm - N/A   Scattered Clouds
3:53 AM 59.0 °F - 57.0 °F 93% 30.04 in 6.0 mi Calm Calm - N/A   Clear
5:53 AM 57.0 °F - 55.0 °F 93% 30.07 in 4.0 mi Calm Calm - N/A   Clear
6:53 AM 57.0 °F - 55.0 °F 93% 30.09 in 4.0 mi Calm Calm - N/A   Clear
7:53 AM 62.1 °F - 57.9 °F 86% 30.11 in 9.0 mi Calm Calm - N/A   Clear
8:53 AM 68.0 °F - 59.0 °F 73% 30.13 in 10.0 mi ENE 5.8 mph - N/A   Clear
9:53 AM 70.0 °F - 61.0 °F 73% 30.14 in 10.0 mi East 3.5 mph - N/A   Clear
10:53 AM 73.0 °F - 60.1 °F 64% 30.14 in 10.0 mi ENE 5.8 mph - N/A   Clear
12:53 PM 77.0 °F - 60.1 °F 56% 30.12 in 10.0 mi ENE 5.8 mph - N/A   Clear
1:53 PM 77.0 °F - 61.0 °F 58% 30.11 in 10.0 mi Variable 4.6 mph - N/A   Clear
2:53 PM 79.0 °F - 60.1 °F 52% 30.10 in 10.0 mi ENE 5.8 mph - N/A   Clear
3:53 PM 79.0 °F - 60.1 °F 52% 30.10 in 10.0 mi NE 3.5 mph - N/A   Clear
4:53 PM 80.1 °F 81.1 °F 61.0 °F 52% 30.11 in 10.0 mi ENE 3.5 mph - N/A   Clear
5:53 PM 75.9 °F - 62.1 °F 62% 30.12 in 10.0 mi East 5.8 mph - N/A   Clear
6:53 PM 70.0 °F - 64.0 °F 81% 30.13 in 10.0 mi Calm Calm - N/A   Clear
7:53 PM 66.9 °F - 63.0 °F 87% 30.14 in 10.0 mi Calm Calm - N/A   Clear
8:53 PM 66.9 °F - 63.0 °F 87% 30.15 in 10.0 mi Calm Calm - N/A   Clear
10:53 PM 66.0 °F - 61.0 °F 84% 30.16 in 10.0 mi Calm Calm - N/A   Clear
11:53 PM 64.0 °F - 60.1 °F 87% 30.16 in 10.0 mi Calm Calm - N/A   Clear